Regional Weather Roundup
Issued by NWS

Home | Current Version | Previous Version | Text Only | Print | Product List | Glossary On
Versions: 1 2 3 4 5 6 7 8 9 10 11 12 13 14 15 16 17 18 19 20 21 22 23 24 25 26 27 28 29 30 31 32 33 34 35 36 37 38 39 40 41 42 43 44 45 46 47 48 49 50
000
ASUS43 KLSX 061410
RWRMO

WEATHER SUMMARY FOR MISSOURI
NATIONAL WEATHER SERVICE SPRINGFIELD MO
800 AM CST TUE DEC 06 2016

NOTE: "FAIR" INDICATES FEW OR NO CLOUDS BELOW 12,000 FEET WITH NO
       SIGNIFICANT WEATHER AND/OR OBSTRUCTIONS TO VISIBILITY.
       CURRENT SKY AND/OR WEATHER CONDITIONS ARE NOT AVAILABLE FOR
       CHILLICOTHE AND FARMINGTON.

MOZ001>031-035>038-043-044-053-054-061500-
...NORTHERN AND WESTERN MISSOURI...

CITY           SKY/WX    TMP DP  RH WIND       PRES   REMARKS
KANSAS CTY INT PTCLDY    31  17  56 N16G25    29.98R WCI  20
KANSAS C DTWN  CLEAR     33  23  66 NW10      29.99R WCI  25
LEE`S SUMMIT   PTCLDY    33  23  66 NW21G30   29.97R WCI  21
ST JOSEPH      CLEAR     30  21  69 NW15      30.00R WCI  19
CHILLICOTHE      N/A     33  24  69 NW12G21   29.94R WCI  24
KIRKSVILLE     CLOUDY    35  31  85 NW16      29.88R WCI  25

$$
MOZ066>068-077>081-088>096-101>105-061500-
...SOUTHWEST MISSOURI...

CITY           SKY/WX    TMP DP  RH WIND       PRES   REMARKS
SPRINGFIELD    CLOUDY    39  36  89 N17       29.85R WCI  30
JOPLIN         CLOUDY    39  37  92 N9        29.95R
BRANSON        MOCLDY    37  36  93 NW13      29.86R WCI  29

$$
MOZ032>034-039>042-045>050-055>058-069>072-061500-
...CENTRAL MISSOURI...

CITY           SKY/WX    TMP DP  RH WIND       PRES   REMARKS
COLUMBIA       FOG       32  32 100 NW8       29.86R VSB 1/4 WCI  25
JEFFERSON CITY FOG       32  32 100 NW3       29.88R VSB 1/2
ROLLA          SNOW      32  32 100 NW8       29.81R VSB<1/4 WCI  25
SEDALIA        CLOUDY    35  34  96 NW13      29.91R WCI  26
WHITEMAN AFB   CLOUDY    35  35 100 N18G29    29.91R WCI  25
WARRENSBURG    CLOUDY    34  28  80 NW15G25   29.95R WCI  24
OSAGE BEACH    CLOUDY    36  35  96 NW10G17   29.88R WCI  28

$$
MOZ051-052-059>065-061500-
...EAST CENTRAL MISSOURI...

CITY           SKY/WX    TMP DP  RH WIND       PRES   REMARKS
ST LOUIS INTL  CLOUDY    39  34  82 NW9       29.82R
SPIRIT OF STL  CLOUDY    39  36  89 N8        29.83R
ST CHARLES     CLOUDY    38  36  92 N9        29.83R

$$
MOZ072>076-082>087-097>100-106>115-061500-
...SOUTH CENTRAL AND SOUTHEAST MISSOURI...

CITY           SKY/WX    TMP DP  RH WIND       PRES   REMARKS
CAPE GIRARDEAU CLOUDY    41  38  89 N10       29.75R
FARMINGTON     CLOUDY    38  36  92 NW10      29.80R
POPLAR BLUFF   CLOUDY    42  41  96 NW5       29.79R
WEST PLAINS    MOCLDY    41  37  86 N16G25    29.81R

$$



USA.gov is the U.S. government's official web portal to all federal, state and local government web resources and services.